Location: Brno
(49.2000°N, 16.6330°E)
Time: 21:12:23
(UTC+02:00)

Explorer 11/Cluster Stage 4 - Pass Details

Date: 31 July 2021
Orbit: 467 x 1257 km, 28.8° (Epoch: 17 September)

Event Time Altitude Azimuth Distance (km) Brightness Sun altitude
Rises 13:53:46 0° 244° (WSW) 4,148 10.6 57.1°
Reaches altitude 10° 13:59:19 10° 215° (SW) 3,065 10.3 56.7°
Maximum altitude 14:01:30 11° 198° (SSW) 2,896 10.2 56.5°
Drops below altitude 10° 14:03:37 10° 181° (S) 2,929 10.2 56.4°
Sets 14:08:33 0° 149° (SSE) 3,682 10.2 56.0°
